[[{"header":{"parameterUnit":"m.s-1","parameterCategory":2,"la1":30.2991,"la2":30.254,"lo1":-89.0895,"lo2":-89.0444,"dy":0.0017,"dx":0.0017,"nx":28,"ny":28,"refTime":"2024-04-28T03:00:00:Z","depth":"0","parameterNumber":2,"parameterNumberName":"U-component_of_CURRENTS"},"data":[0,0,0,0,0,0,0,0,0,0,0,0,0,0,0,0,0,0,0,0,0,0,0,0,0,0,0,0,0,0,0,0,0,0,0,0,0,0,0,0,0,0,0,0,0,0,0,0,0,0,0,0,0,0,0,0,0,0,0.2629,0.2629,0,0.2593,0.2593,0.2592,0.2549,0.2549,0.2549,0.2548,0.2473,0.2471,0.247,0,0,0,0,0,0,0,0,0,0,0,0,0,0.2634,0.2634,0.2629,0.2629,0.2629,0.2593,0.2593,0.2592,0.2549,0.2549,0.2549,0.2548,0.2474,0.2472,0.247,0,0,0,0,0,0,0,0,0,0,0,0,0,0.2614,0.2634,0.2629,0.2606,0.2604,0.2594,0.2593,0.2591,0.2549,0.2549,0.2549,0.2548,0.2474,0.2472,0.2469,0.2462,0,0,0.2461,0.246,0,0,0,0,0,0,0,0,0.2616,0.2614,0.261,0.2608,0.2606,0.2579,0.2567,0.2548,0.255,0.2566,0.2548,0.2548,0.2508,0.2502,0.2491,0.2458,0.2455,0.2461,0.246,0.2458,0.2458,0,0,0,0,0,0,0,0.2617,0.2615,0.2611,0.261,0.2607,0.2589,0.2586,0.2563,0.2536,0.2565,0.2562,0.2565,0.2506,0.2494,0.2489,0.2454,0.2461,0.2459,0.2457,0.2456,0.2448,0.2449,0,0,0,0,0,0,0.2631,0.2616,0.2612,0.261,0.2614,0.259,0.2586,0.2585,0.2537,0.2531,0.2565,0.2563,0.2499,0.2492,0.2487,0.249,0.2458,0.2456,0.2454,0.2447,0.2448,0.245,0,0,0,0,0,0,0.2632,0.2631,0.2613,0.2616,0.2613,0.2591,0.2589,0.2584,0.2577,0.2539,0.2531,0.2565,0.2498,0.249,0.2477,0.2486,0.2455,0.2452,0.2445,0.2447,0.2449,0.2487,0,0,0,0,0,0,0.2632,0.2631,0.2634,0.2617,0.2613,0.2611,0.259,0.2584,0.2581,0.2578,0.2535,0.2528,0.2497,0.2481,0.2474,0.2482,0.245,0.2443,0.2446,0.2448,0.2484,0.249,0.2495,0,0,0,0,0,0.2632,0.2632,0.2634,0.2634,0.2618,0.2612,0.2608,0.2588,0.2582,0.2579,0.2558,0.2529,0.2493,0.248,0.2472,0.2479,0.2442,0.2445,0.2448,0.2482,0.2489,0.2495,0,0,0,0,0,0,0.2632,0.2628,0.2629,0.2628,0.2627,0.2606,0.2602,0.2596,0.2577,0.2574,0.2538,0.2529,0.2525,0.2503,0.249,0.2488,0.2466,0.2468,0.2494,0.2501,0.2506,0.2514,0.2448,0,0,0,0,0,0.2638,0.2637,0.2635,0.2635,0.2637,0.2624,0.262,0.2611,0.2595,0.2586,0.256,0.254,0.2531,0.2517,0.2502,0.2493,0.25,0.2497,0.2503,0.2508,0.2511,0.2546,0.2555,0.246,0.246,0.246,0,0,0.2636,0.2637,0.2635,0.2636,0.263,0.2628,0.2619,0.2616,0.2613,0.2581,0.2565,0.2558,0.2536,0.253,0.2526,0.251,0.2541,0.2511,0.2515,0.2516,0.255,0.2559,0.2567,0.2462,0.2461,0.2461,0,0,0.2633,0.2638,0.2636,0.2637,0.264,0.2635,0.264,0.2629,0.2622,0.2614,0.26,0.2605,0.2571,0.2566,0.2558,0.2589,0.2575,0.2584,0.2606,0.264,0.2648,0.2655,0.2684,0.2693,0.258,0.258,0.258,0,0.2632,0.2627,0.2635,0.2635,0.2633,0.2641,0.2637,0.2636,0.2622,0.2625,0.2613,0.2609,0.2591,0.26,0.2611,0.26,0.2616,0.2578,0.2647,0.2654,0.2661,0.2688,0.2698,0.2583,0.2582,0.2582,0.2582,0,0.2625,0.2622,0.2622,0.2624,0.263,0.2625,0.2634,0.2641,0.2641,0.2641,0.2655,0.2645,0.2645,0.2646,0.2631,0.2671,0.2667,0.2655,0.2627,0.2672,0.2699,0.2708,0.2586,0.2585,0.2584,0.2584,0,0,0.2609,0.2613,0.2611,0.2609,0.2619,0.262,0.2634,0.2646,0.266,0.2663,0.2681,0.2683,0.2695,0.269,0.2686,0.2711,0.2773,0.2702,0.2703,0.2726,0.2849,0.2843,0.2852,0.2773,0.2774,0.2776,0.2851,0,0.2594,0.2588,0.2595,0.2589,0.2586,0.2606,0.2616,0.2638,0.2655,0.2679,0.27,0.2714,0.2706,0.2715,0.2744,0.2767,0.2799,0.2754,0.2806,0.2808,0.2793,0.2863,0.279,0.2851,0.286,0.2862,0.2863,0,0.2573,0.2575,0.2561,0.2571,0.2573,0.2576,0.2607,0.2619,0.267,0.2687,0.2725,0.2743,0.279,0.2775,0.2847,0.282,0.2842,0.2857,0.286,0.2846,0.2819,0.2807,0.2868,0.2816,0.2877,0.2876,0.2875,0,0.2544,0.2546,0.2531,0.2531,0.2549,0.2557,0.2577,0.2622,0.2639,0.2704,0.2731,0.2786,0.2818,0.2863,0.2905,0.2881,0.2984,0.2953,0.2969,0.2968,0.2913,0.2904,0.2924,0.3011,0.3011,0.301,0.301,0,0.2509,0.2499,0.2518,0.2508,0.2508,0.2539,0.2551,0.2589,0.2643,0.2673,0.2735,0.2776,0.2843,0.2905,0.2933,0.2993,0.3013,0.2994,0.2997,0.2925,0.2917,0.2873,0.2804,0.3013,0.3013,0.3012,0.3011,0,0.2465,0.2471,0.2458,0.2479,0.2486,0.2491,0.2526,0.2542,0.261,0.2658,0.2682,0.2783,0.2873,0.2938,0.302,0.3029,0.2986,0.3094,0.3007,0.2998,0.2947,0.2881,0.2682,0.2599,0.3123,0.3124,0.3124,0,0.2435,0.2423,0.243,0.2425,0.2428,0.2443,0.245,0.2513,0.254,0.2657,0.2681,0.2794,0.2858,0.2992,0.3048,0.3118,0.2989,0.3078,0.3019,0.2956,0.2885,0.2664,0.2592,0.2962,0.2961,0.296,0.296,0,0.2387,0.2388,0.2383,0.2375,0.2373,0.2367,0.2396,0.2408,0.2492,0.255,0.2638,0.2705,0.286,0.2919,0.3031,0.3056,0.2901,0.3063,0.3021,0.2787,0.2522,0.244,0.2899,0.2953,0.2953,0.2954,0.2954,0.2955,0.2354,0.2339,0.2335,0.2314,0.2311,0.2289,0.2255,0.2303,0.2335,0.2392,0.2536,0.2603,0.2781,0.2932,0.2949,0.296,0.2841,0.29,0.2836,0.2626,0.2501,0.2948,0.2989,0.2989,0.299,0.2991,0.2991,0,0.2311,0.2295,0.2276,0.2238,0.2194,0.2218,0.2208,0.216,0.2157,0.2266,0.2336,0.2508,0.2613,0.274,0.2847,0.2764,0.2582,0.2686,0.2378,0.2332,0.2787,0.2742,0.2703,0.2703,0.2703,0.2704,0.2704,0.2704,0.2289,0.2247,0.2223,0.2126,0.2094,0.1988,0.1953,0.1912,0.1948,0.1987,0.2071,0.2184,0.2431,0.2574,0.2588,0.2544,0.2309,0.2163,0.2126,0.2503,0.2518,0.2532,0.248,0.2386,0.2385,0.1585,0.1579,0.1575]},{"header":{"parameterUnit":"m.s-1","parameterCategory":2,"la1":30.2991,"la2":30.254,"lo1":-89.0895,"lo2":-89.0444,"dy":0.0017,"dx":0.0017,"nx":28,"ny":28,"refTime":"2024-04-28T03:00:00:Z","depth":"0","parameterNumber":3,"parameterNumberName":"V-component_of_CURRENTS"},"data":[0,0,0,0,0,0,0,0,0,0,0,0,0,0,0,0,0,0,0,0,0,0,0,0,0,0,0,0,0,0,0,0,0,0,0,0,0,0,0,0,0,0,0,0,0,0,0,0,0,0,0,0,0,0,0,0,0,0,0.0151,0.0151,0,0.0086,0.0085,0.0084,0.0052,0.0052,0.0052,0.0052,-0.0012,-0.0013,-0.0015,0,0,0,0,0,0,0,0,0,0,0,0,0,0.0187,0.0187,0.0151,0.0151,0.015,0.0086,0.0085,0.0084,0.0052,0.0052,0.0052,0.0052,-0.0011,-0.0013,-0.0015,0,0,0,0,0,0,0,0,0,0,0,0,0,0.0151,0.0187,0.0151,0.0126,0.0123,0.0086,0.0085,0.0084,0.0052,0.0052,0.0052,0.0052,-0.001,-0.0013,-0.0016,-0.0032,0,0,-0.0023,-0.0024,0,0,0,0,0,0,0,0,0.0153,0.015,0.0131,0.0128,0.0125,0.0077,0.0074,0.0045,0.0051,0.0078,0.0052,0.0052,0.0018,0.0013,0.0,-0.0035,-0.0038,-0.0024,-0.0025,-0.0026,-0.0027,0,0,0,0,0,0,0,0.0156,0.0152,0.0125,0.013,0.0126,0.0097,0.0092,0.0068,0.0049,0.0076,0.0074,0.0067,0.0017,0.0003,-0.0001,-0.0039,-0.0024,-0.0026,-0.0027,-0.0028,-0.0085,-0.0085,0,0,0,0,0,0,0.0168,0.0155,0.0127,0.0123,0.014,0.0097,0.0091,0.0092,0.0049,0.0042,0.0067,0.0066,0.0007,0.0002,-0.0004,-0.0007,-0.0026,-0.0029,-0.003,-0.0085,-0.0085,-0.0085,0,0,0,0,0,0,0.0169,0.0167,0.013,0.0137,0.0131,0.0096,0.0097,0.0091,0.0081,0.0042,0.0035,0.0064,0.0007,0.0,-0.002,-0.0011,-0.003,-0.0032,-0.0086,-0.0085,-0.0085,-0.0027,0,0,0,0,0,0,0.0171,0.0168,0.0171,0.0138,0.0131,0.0114,0.0097,0.0089,0.0077,0.0074,0.0037,0.0031,0.0007,-0.0016,-0.0023,-0.0015,-0.0034,-0.0086,-0.0085,-0.0085,-0.0029,-0.0025,-0.0021,0,0,0,0,0,0.0172,0.0179,0.0172,0.0169,0.0138,0.0114,0.0108,0.0083,0.0077,0.0074,0.005,0.0033,-0.002,-0.0018,-0.0026,-0.0018,-0.0086,-0.0085,-0.0085,-0.003,-0.0026,-0.0021,0,0,0,0,0,0,0.0195,0.0175,0.0167,0.0168,0.0146,0.0109,0.0104,0.0088,0.0066,0.0067,0.0032,0.0024,0.0009,-0.0015,-0.0011,-0.0036,-0.0056,-0.0057,-0.0011,-0.0007,-0.0003,0.0018,-0.0036,0,0,0,0,0,0.0203,0.0206,0.0178,0.0179,0.0171,0.0139,0.0127,0.0112,0.0087,0.0077,0.0051,0.0024,0.0002,-0.0009,-0.0035,-0.0048,-0.0066,-0.0049,-0.0045,-0.0042,-0.0031,-0.0051,-0.0048,-0.0085,-0.0085,-0.0085,0,0,0.0211,0.0202,0.0202,0.0184,0.0166,0.0161,0.0132,0.012,0.0119,0.0074,0.0066,0.0036,0.0001,-0.0013,-0.0022,-0.0031,-0.0041,-0.0042,-0.0038,-0.0029,-0.0051,-0.0047,-0.0044,-0.0085,-0.0085,-0.0085,0,0,0.023,0.0222,0.023,0.0216,0.0195,0.0179,0.0179,0.0148,0.0138,0.0121,0.0093,0.0072,0.0033,0.0014,-0.0002,0.0007,-0.0022,-0.0006,0.0032,0.0012,0.0016,0.0018,0.0002,0.0003,-0.0003,-0.0002,-0.0002,0,0.0241,0.0248,0.0227,0.0229,0.0224,0.0193,0.02,0.0183,0.015,0.0148,0.0128,0.008,0.0048,0.0039,0.004,0.0017,0.0001,0.0021,0.0019,0.0021,0.0023,0.0005,0.0006,0.0,0.0,-0.0,-0.0001,0,0.0265,0.0267,0.0271,0.0269,0.0262,0.0261,0.0239,0.0233,0.0217,0.02,0.0184,0.0138,0.0113,0.0096,0.0069,0.0067,0.005,0.0027,0.0013,0.0031,0.001,0.001,0.0004,0.0003,0.0003,0.0002,0,0,0.0306,0.0291,0.0294,0.03,0.0284,0.0285,0.0287,0.0283,0.0297,0.0257,0.0266,0.0218,0.0194,0.0175,0.0137,0.0117,0.011,0.0082,0.0079,0.0076,0.0069,0.0074,0.0073,0.0086,0.0086,0.0087,0.005,0,0.0334,0.0347,0.0335,0.0355,0.0362,0.0341,0.0351,0.0344,0.0331,0.0331,0.0287,0.0278,0.0224,0.0216,0.0187,0.0132,0.011,0.0122,0.0044,0.0042,0.0052,0.0073,0.015,0.0125,0.0049,0.0049,0.0049,0,0.0369,0.0374,0.0394,0.0404,0.0408,0.0419,0.0439,0.0442,0.0433,0.0422,0.0401,0.0364,0.0333,0.0282,0.0204,0.0213,0.0149,0.0101,0.0098,0.0084,0.0045,0.0093,0.0126,0.0057,0.0047,0.0047,0.0048,0,0.0415,0.0422,0.0443,0.0443,0.0446,0.0463,0.0472,0.0473,0.0492,0.0485,0.0498,0.0443,0.0428,0.0341,0.0239,0.0221,0.0152,0.0112,0.0056,0.0055,0.0097,0.01,0.0066,0.0058,0.0058,0.0058,0.0058,0,0.0451,0.047,0.0467,0.0479,0.0522,0.0511,0.0558,0.0558,0.0572,0.0611,0.0552,0.0572,0.0442,0.0384,0.0274,0.0174,0.0177,0.0075,0.0051,0.0119,0.0124,0.0046,-0.0003,0.0057,0.0057,0.0058,0.0058,0,0.0489,0.0484,0.0513,0.0529,0.0542,0.0574,0.0614,0.0646,0.0655,0.0704,0.0709,0.0671,0.0606,0.0474,0.0343,0.0235,0.0099,0.0087,0.0178,0.0166,0.0043,-0.0004,-0.0065,-0.0105,0.0021,0.0021,0.0021,0,0.0506,0.0522,0.0555,0.0582,0.059,0.0634,0.0668,0.0687,0.0729,0.0774,0.0808,0.0768,0.076,0.0573,0.0398,0.0225,0.0121,0.015,0.0124,0.0061,-0.001,-0.0048,-0.008,0.02,0.0201,0.0203,0.0204,0,0.054,0.0552,0.0575,0.0628,0.0671,0.0719,0.0773,0.082,0.0859,0.0909,0.0975,0.0977,0.0839,0.0721,0.0482,0.0348,0.0133,0.0167,0.0084,0.012,0.0096,0.004,0.0192,0.0214,0.0213,0.0212,0.0212,0.0211,0.057,0.0594,0.0627,0.0679,0.073,0.0799,0.0845,0.0917,0.1,0.1096,0.1104,0.1159,0.1019,0.0726,0.0514,0.0238,0.0198,0.0157,0.0102,0.0067,0.0043,0.0218,0.0221,0.022,0.0219,0.0218,0.0217,0,0.0603,0.0627,0.0675,0.0735,0.079,0.0813,0.0909,0.0958,0.1064,0.1202,0.1272,0.1316,0.1105,0.0844,0.0505,0.0253,0.013,0.0104,0.0079,0.0041,0.0197,0.022,0.0246,0.0246,0.0246,0.0246,0.0246,0.0246,0.0621,0.0663,0.0681,0.0769,0.0815,0.0886,0.094,0.1028,0.1138,0.1315,0.1438,0.1519,0.1474,0.0811,0.0369,0.0209,0.0023,-0.0015,-0.015,-0.0026,-0.0026,-0.0025,-0.0014,-0.0038,-0.0038,-0.0245,-0.0247,-0.0249]}],[{"header":{"parameterUnit":"m.s-1","parameterCategory":2,"la1":30.2991,"la2":30.254,"lo1":-89.0895,"lo2":-89.0444,"dy":0.0017,"dx":0.0017,"nx":28,"ny":28,"refTime":"2024-04-28T03:00:00:Z","depth":"2","parameterNumber":2,"parameterNumberName":"U-component_of_CURRENTS"},"data":[0,0,0,0,0,0,0,0,0,0,0,0,0,0,0,0,0,0,0,0,0,0,0,0,0,0,0,0,0,0,0,0,0,0,0,0,0,0,0,0,0,0,0,0,0,0,0,0,0,0,0,0,0,0,0,0,0,0,0.2629,0.2629,0,0.2597,0.2596,0.2595,0.2556,0.2555,0.2555,0.2555,0.2485,0.2483,0.2482,0,0,0,0,0,0,0,0,0,0,0,0,0,0.2631,0.2631,0.2629,0.2629,0.2629,0.2597,0.2596,0.2595,0.2556,0.2555,0.2555,0.2555,0.2485,0.2483,0.2482,0,0,0,0,0,0,0,0,0,0,0,0,0,0.2614,0.2631,0.2629,0.2608,0.2606,0.2597,0.2596,0.2595,0.2556,0.2555,0.2555,0.2555,0.2486,0.2484,0.2481,0.2474,0,0,0.2474,0.2473,0,0,0,0,0,0,0,0,0.2615,0.2614,0.2611,0.261,0.2608,0.2583,0.2571,0.2554,0.2556,0.2571,0.2555,0.2554,0.2517,0.2512,0.2502,0.2471,0.2468,0.2474,0.2472,0.2471,0.247,0,0,0,0,0,0,0,0.2616,0.2615,0.2612,0.2611,0.2609,0.2592,0.2589,0.2568,0.2543,0.2569,0.2568,0.257,0.2515,0.2504,0.25,0.2467,0.2474,0.2472,0.247,0.2469,0.2465,0.2466,0,0,0,0,0,0,0.263,0.2616,0.2613,0.2612,0.2615,0.2593,0.2589,0.2588,0.2544,0.2538,0.2571,0.2569,0.2509,0.2503,0.2497,0.2503,0.2471,0.2469,0.2467,0.2463,0.2465,0.2466,0,0,0,0,0,0,0.263,0.263,0.2615,0.2616,0.2614,0.2594,0.2593,0.2588,0.2582,0.2546,0.2538,0.2571,0.2508,0.2501,0.2489,0.2499,0.2468,0.2466,0.2462,0.2464,0.2466,0.2503,0,0,0,0,0,0,0.263,0.263,0.2633,0.2617,0.2614,0.2613,0.2593,0.2588,0.2586,0.2583,0.2544,0.2536,0.2507,0.2493,0.2487,0.2495,0.2464,0.246,0.2463,0.2465,0.25,0.2506,0.2511,0,0,0,0,0,0.263,0.2631,0.2633,0.2633,0.2619,0.2614,0.261,0.2592,0.2587,0.2585,0.2566,0.2538,0.2505,0.2492,0.2485,0.2492,0.2459,0.2462,0.2465,0.2497,0.2505,0.2511,0,0,0,0,0,0,0.2631,0.2628,0.2629,0.2629,0.2628,0.2609,0.2606,0.26,0.2584,0.2581,0.2547,0.2538,0.2536,0.2515,0.2502,0.2503,0.2481,0.2482,0.2508,0.2515,0.252,0.2527,0.2462,0,0,0,0,0,0.2636,0.2636,0.2635,0.2636,0.2638,0.2627,0.2623,0.2615,0.2601,0.2593,0.2568,0.2551,0.2542,0.2529,0.2516,0.2508,0.2516,0.2513,0.2519,0.2524,0.2527,0.2561,0.257,0.2476,0.2476,0.2476,0,0,0.2635,0.2636,0.2635,0.2637,0.2632,0.2631,0.2622,0.2621,0.2618,0.2588,0.2574,0.2568,0.2548,0.2543,0.254,0.2524,0.2556,0.2527,0.2531,0.2532,0.2565,0.2574,0.2582,0.2478,0.2478,0.2477,0,0,0.2633,0.2638,0.2637,0.2638,0.2642,0.2638,0.2643,0.2633,0.2627,0.2621,0.2609,0.2615,0.2583,0.258,0.2573,0.2604,0.259,0.2599,0.2621,0.2655,0.2662,0.2669,0.2697,0.2706,0.2595,0.2595,0.2596,0,0.2632,0.2628,0.2636,0.2637,0.2635,0.2644,0.2641,0.2641,0.2629,0.2632,0.2621,0.262,0.2603,0.2613,0.2624,0.2615,0.263,0.2593,0.2661,0.2668,0.2675,0.2701,0.2711,0.2598,0.2597,0.2597,0.2597,0,0.2626,0.2624,0.2624,0.2628,0.2633,0.2629,0.2639,0.2648,0.2648,0.2649,0.2665,0.2657,0.2658,0.2659,0.2645,0.2685,0.2681,0.2669,0.2642,0.2686,0.2712,0.2721,0.2601,0.26,0.2599,0.2599,0,0,0.2611,0.2616,0.2614,0.2613,0.2624,0.2626,0.2641,0.2653,0.2668,0.2672,0.2691,0.2695,0.2707,0.2703,0.27,0.2724,0.2785,0.2716,0.2716,0.2738,0.286,0.2851,0.286,0.2785,0.2787,0.2788,0.2861,0,0.2596,0.2592,0.26,0.2595,0.2592,0.2612,0.2624,0.2646,0.2664,0.2688,0.271,0.2725,0.2718,0.2728,0.2756,0.2779,0.281,0.2766,0.2818,0.2819,0.2802,0.287,0.2588,0.2629,0.287,0.2872,0.2873,0,0.2577,0.258,0.2567,0.2578,0.258,0.2585,0.2616,0.2629,0.268,0.2698,0.2736,0.2754,0.2801,0.2787,0.2858,0.2831,0.2853,0.2868,0.2871,0.2854,0.2827,0.2624,0.2637,0.2888,0.2887,0.2886,0.2885,0,0.2549,0.2552,0.2538,0.2539,0.2558,0.2566,0.2587,0.2633,0.265,0.2715,0.2742,0.2797,0.2829,0.2873,0.2914,0.2892,0.2993,0.2962,0.2975,0.2974,0.274,0.2717,0.3019,0.3019,0.3019,0.3018,0.3018,0,0.2515,0.2506,0.2525,0.2516,0.2518,0.2549,0.2562,0.26,0.2655,0.2684,0.2746,0.2786,0.2854,0.2915,0.2942,0.3,0.3021,0.2999,0.3001,0.2748,0.2725,0.2947,0.2937,0.3021,0.3021,0.302,0.302,0,0.2472,0.2478,0.2467,0.2489,0.2496,0.2502,0.2538,0.2555,0.2622,0.267,0.2694,0.2794,0.2882,0.2946,0.3027,0.3035,0.3086,0.3096,0.28,0.2767,0.3035,0.3027,0.312,0.312,0.3121,0.3121,0.3121,0,0.2442,0.2432,0.244,0.2435,0.244,0.2455,0.2463,0.2526,0.2553,0.2669,0.2692,0.2804,0.2861,0.2991,0.3002,0.3057,0.3118,0.2857,0.277,0.3058,0.305,0.3041,0.3033,0.2467,0.2462,0.2458,0.2454,0,0.2395,0.2397,0.2393,0.2386,0.2386,0.2381,0.2411,0.2422,0.2506,0.2558,0.2643,0.2703,0.2816,0.2752,0.2842,0.2837,0.2827,0.2779,0.3145,0.2506,0.2454,0.2443,0.2453,0.2417,0.2421,0.2424,0.2426,0.2427,0.2363,0.2349,0.2346,0.2327,0.2325,0.2303,0.2271,0.2308,0.2332,0.2361,0.2502,0.2504,0.2553,0.2548,0.2501,0.2475,0.2681,0.2565,0.2571,0.2584,0.2517,0.247,0.2423,0.2427,0.243,0.2433,0.2435,0,0.2313,0.2306,0.2289,0.2252,0.2202,0.2234,0.2224,0.2166,0.2143,0.2198,0.2229,0.2092,0.2053,0.2116,0.2009,0.2059,0.1972,0.199,0.1828,0.1868,0.1903,0.1794,0.1513,0.151,0.1507,0.1505,0,0,0.2289,0.2244,0.2221,0.2125,0.2101,0.1998,0.1964,0.191,0.1909,0.1851,0.1824,0.1929,0.2049,0.1741,0.1718,0.1592,0.1708,0.1529,0.227,0.2117,0.2148,0.2242,0.2124,0,0,0,0,0]},{"header":{"parameterUnit":"m.s-1","parameterCategory":2,"la1":30.2991,"la2":30.254,"lo1":-89.0895,"lo2":-89.0444,"dy":0.0017,"dx":0.0017,"nx":28,"ny":28,"refTime":"2024-04-28T03:00:00:Z","depth":"2","parameterNumber":3,"parameterNumberName":"V-component_of_CURRENTS"},"data":[0,0,0,0,0,0,0,0,0,0,0,0,0,0,0,0,0,0,0,0,0,0,0,0,0,0,0,0,0,0,0,0,0,0,0,0,0,0,0,0,0,0,0,0,0,0,0,0,0,0,0,0,0,0,0,0,0,0,0.011,0.011,0,0.0046,0.0045,0.0044,0.0012,0.0012,0.0012,0.0012,-0.005,-0.0051,-0.0053,0,0,0,0,0,0,0,0,0,0,0,0,0,0.0145,0.0145,0.011,0.011,0.0109,0.0046,0.0045,0.0044,0.0012,0.0012,0.0012,0.0012,-0.0049,-0.0051,-0.0053,0,0,0,0,0,0,0,0,0,0,0,0,0,0.011,0.0145,0.0111,0.0086,0.0083,0.0046,0.0045,0.0044,0.0012,0.0012,0.0012,0.0012,-0.0048,-0.0051,-0.0053,-0.007,0,0,-0.0061,-0.0062,0,0,0,0,0,0,0,0,0.0112,0.0109,0.009,0.0087,0.0084,0.0037,0.0034,0.0006,0.0012,0.0039,0.0012,0.0012,-0.002,-0.0025,-0.0038,-0.0073,-0.0076,-0.0061,-0.0063,-0.0064,-0.0065,0,0,0,0,0,0,0,0.0115,0.0111,0.0084,0.0089,0.0086,0.0057,0.0052,0.0028,0.0009,0.0036,0.0034,0.0027,-0.0022,-0.0035,-0.004,-0.0077,-0.0061,-0.0064,-0.0065,-0.0066,-0.0122,-0.0122,0,0,0,0,0,0,0.0127,0.0114,0.0086,0.0082,0.0099,0.0056,0.0051,0.0052,0.001,0.0003,0.0027,0.0026,-0.0031,-0.0037,-0.0042,-0.0046,-0.0064,-0.0066,-0.0068,-0.0122,-0.0122,-0.0122,0,0,0,0,0,0,0.0128,0.0125,0.0089,0.0096,0.009,0.0056,0.0057,0.0051,0.0041,0.0003,-0.0004,0.0025,-0.0031,-0.0038,-0.0058,-0.0049,-0.0067,-0.007,-0.0122,-0.0122,-0.0122,-0.0065,0,0,0,0,0,0,0.0129,0.0126,0.013,0.0098,0.009,0.0074,0.0057,0.0049,0.0037,0.0035,-0.0002,-0.0008,-0.0032,-0.0054,-0.006,-0.0053,-0.0072,-0.0122,-0.0122,-0.0122,-0.0067,-0.0063,-0.006,0,0,0,0,0,0.0131,0.0138,0.0131,0.0128,0.0097,0.0074,0.0067,0.0043,0.0037,0.0034,0.0011,-0.0006,-0.0058,-0.0056,-0.0064,-0.0056,-0.0122,-0.0122,-0.0122,-0.0069,-0.0064,-0.006,0,0,0,0,0,0,0.0154,0.0134,0.0126,0.0127,0.0105,0.0069,0.0064,0.0048,0.0026,0.0027,-0.0007,-0.0015,-0.0029,-0.0053,-0.0049,-0.0074,-0.0093,-0.0094,-0.005,-0.0045,-0.0042,-0.0021,-0.0074,0,0,0,0,0,0.0162,0.0165,0.0137,0.0138,0.013,0.0099,0.0087,0.0072,0.0047,0.0038,0.0012,-0.0014,-0.0036,-0.0048,-0.0073,-0.0086,-0.0103,-0.0087,-0.0083,-0.008,-0.0069,-0.009,-0.0086,-0.0122,-0.0122,-0.0122,0,0,0.017,0.0161,0.0161,0.0143,0.0125,0.012,0.0092,0.008,0.0078,0.0035,0.0027,-0.0003,-0.0038,-0.0052,-0.006,-0.0069,-0.008,-0.008,-0.0077,-0.0067,-0.0089,-0.0086,-0.0082,-0.0122,-0.0122,-0.0122,0,0,0.0189,0.0182,0.019,0.0175,0.0155,0.0138,0.0139,0.0108,0.0097,0.0081,0.0053,0.0033,-0.0006,-0.0025,-0.0041,-0.0033,-0.006,-0.0044,-0.0008,-0.0028,-0.0024,-0.0022,-0.0039,-0.0038,-0.0042,-0.0041,-0.0041,0,0.0201,0.0207,0.0187,0.0188,0.0183,0.0152,0.0158,0.0142,0.0109,0.0107,0.0087,0.004,0.0009,-0.0001,-0.0,-0.0022,-0.0039,-0.0019,-0.0021,-0.0019,-0.0017,-0.0035,-0.0035,-0.0039,-0.0039,-0.0039,-0.004,0,0.0224,0.0226,0.0229,0.0227,0.0219,0.0218,0.0196,0.019,0.0174,0.0157,0.0142,0.0096,0.0071,0.0054,0.0028,0.0026,0.0009,-0.0013,-0.0027,-0.001,-0.003,-0.0031,-0.0035,-0.0036,-0.0037,-0.0037,0,0,0.0265,0.0249,0.0252,0.0257,0.0241,0.0241,0.0243,0.0238,0.0251,0.0212,0.0221,0.0173,0.015,0.0131,0.0094,0.0074,0.0066,0.004,0.0037,0.0033,0.0025,0.0029,0.0028,0.0043,0.0043,0.0043,0.0007,0,0.0292,0.0303,0.0291,0.031,0.0315,0.0295,0.0304,0.0297,0.0284,0.0283,0.024,0.0231,0.0179,0.0171,0.0142,0.0088,0.0066,0.0078,0.0001,-0.0001,0.0008,0.0028,0.0015,-0.0017,0.0006,0.0005,0.0005,0,0.0326,0.0329,0.0348,0.0356,0.036,0.037,0.039,0.0392,0.0382,0.0372,0.0351,0.0316,0.0284,0.0235,0.0157,0.0167,0.0104,0.0056,0.0053,0.0039,0.0002,-0.0033,-0.002,0.0003,0.0003,0.0003,0.0004,0,0.037,0.0376,0.0396,0.0395,0.0397,0.0414,0.0423,0.0423,0.0441,0.0434,0.0446,0.0392,0.0377,0.0292,0.0191,0.0174,0.0105,0.0066,0.001,0.0009,-0.0025,-0.0028,0.0012,0.0012,0.0012,0.0012,0.0012,0,0.0405,0.0423,0.042,0.0431,0.0472,0.0461,0.0507,0.0507,0.052,0.0558,0.05,0.0518,0.0391,0.0333,0.0225,0.0126,0.0129,0.0028,0.0005,-0.0006,-0.0007,-0.001,-0.0012,0.0011,0.0011,0.0011,0.0012,0,0.0442,0.0437,0.0465,0.0479,0.0492,0.0524,0.0563,0.0594,0.0602,0.065,0.0655,0.0616,0.0552,0.0422,0.0291,0.0185,0.0078,0.0038,0.0039,0.0018,-0.0016,-0.0015,-0.0027,-0.0027,-0.0027,-0.0027,-0.0027,0,0.0458,0.0474,0.0506,0.0532,0.0541,0.0583,0.0617,0.0635,0.0675,0.0719,0.0752,0.0711,0.0697,0.0512,0.0317,0.0139,0.0109,0.0007,-0.003,0.0004,-0.0018,-0.0017,-0.0016,-0.006,-0.0061,-0.0061,-0.0061,0,0.0491,0.0503,0.0526,0.0579,0.062,0.0668,0.072,0.0766,0.0803,0.0846,0.0908,0.0904,0.0747,0.0563,0.0317,0.0189,0.0033,-0.0003,0.0031,-0.0039,-0.0028,-0.0049,-0.0047,-0.0063,-0.0063,-0.0063,-0.0063,-0.0063,0.0521,0.0544,0.0577,0.0628,0.0679,0.0746,0.0791,0.0831,0.0902,0.0934,0.098,0.0936,0.0781,0.0439,0.0255,0.0033,0.0051,-0.0059,-0.0058,-0.0057,-0.0045,-0.0034,-0.0068,-0.0068,-0.0068,-0.0067,-0.0067,0,0.0542,0.0577,0.0624,0.0683,0.0721,0.0761,0.0854,0.0846,0.0902,0.0937,0.0957,0.0775,0.0613,0.0423,0.01,-0.0061,-0.0091,-0.0127,-0.0136,-0.0132,-0.0129,-0.0121,-0.0165,-0.0165,-0.0166,-0.0167,0,0,0.0557,0.0593,0.061,0.0686,0.0743,0.0769,0.0821,0.0811,0.0815,0.0799,0.078,0.0786,0.0625,0.0368,0.0164,-0.0013,-0.0048,-0.0055,0.0038,0.0054,0.0058,-0.0073,-0.0054,0,0,0,0,0]}],[{"header":{"parameterUnit":"m.s-1","parameterCategory":2,"la1":30.2991,"la2":30.254,"lo1":-89.0895,"lo2":-89.0444,"dy":0.0017,"dx":0.0017,"nx":28,"ny":28,"refTime":"2024-04-28T03:00:00:Z","depth":"4","parameterNumber":2,"parameterNumberName":"U-component_of_CURRENTS"},"data":[0,0,0,0,0,0,0,0,0,0,0,0,0,0,0,0,0,0,0,0,0,0,0,0,0,0,0,0,0,0,0,0,0,0,0,0,0,0,0,0,0,0,0,0,0,0,0,0,0,0,0,0,0,0,0,0,0,0,0.1634,0.1635,0,0.1696,0.1696,0.1697,0.1746,0.1747,0.1748,0.1748,0.1819,0.182,0.1822,0,0,0,0,0,0,0,0,0,0,0,0,0,0.1554,0.1555,0.1634,0.1635,0.1636,0.1696,0.1696,0.1697,0.1746,0.1747,0.1748,0.1749,0.1819,0.182,0.1822,0,0,0,0,0,0,0,0,0,0,0,0,0,0.1598,0.1555,0.1634,0.1669,0.1673,0.1695,0.1696,0.1697,0.1746,0.1747,0.1748,0.1749,0.1818,0.182,0.1822,0.1813,0,0,0.1828,0.1829,0,0,0,0,0,0,0,0,0.1595,0.16,0.1663,0.1667,0.1671,0.1716,0.1694,0.1737,0.1746,0.1716,0.1748,0.175,0.1786,0.1791,0.1797,0.1817,0.182,0.1828,0.1829,0.183,0.183,0,0,0,0,0,0,0,0.1592,0.1598,0.1657,0.1664,0.1669,0.168,0.1687,0.1702,0.1744,0.1719,0.1723,0.1733,0.1788,0.1795,0.1799,0.1821,0.1828,0.183,0.1831,0.1832,0.194,0.1941,0,0,0,0,0,0,0.1588,0.1595,0.1655,0.1659,0.1637,0.1681,0.1689,0.1699,0.1743,0.1752,0.1732,0.1735,0.1791,0.1797,0.1802,0.1883,0.183,0.1832,0.1833,0.1938,0.194,0.1942,0,0,0,0,0,0,0.1585,0.1592,0.1652,0.163,0.1638,0.1681,0.1692,0.17,0.1742,0.1753,0.1761,0.1771,0.1793,0.1799,0.185,0.1883,0.1833,0.1834,0.1936,0.1939,0.1941,0.1989,0,0,0,0,0,0,0.1583,0.1591,0.1615,0.1629,0.164,0.1688,0.1692,0.17,0.1745,0.1751,0.1789,0.1794,0.1794,0.1848,0.1852,0.1885,0.1836,0.1934,0.1937,0.194,0.1985,0.1992,0.1999,0,0,0,0,0,0.158,0.1602,0.1616,0.1624,0.1665,0.1689,0.1696,0.1728,0.1747,0.1769,0.1801,0.1795,0.1872,0.1851,0.1856,0.1889,0.1932,0.1936,0.194,0.1982,0.1991,0.1999,0,0,0,0,0,0,0.1581,0.161,0.1625,0.1657,0.1683,0.1699,0.173,0.1747,0.1789,0.1808,0.1815,0.1823,0.1881,0.1881,0.1857,0.1932,0.1902,0.1907,0.1932,0.1941,0.1948,0.1944,0.1837,0,0,0,0,0,0.159,0.162,0.1641,0.1672,0.1688,0.1716,0.1738,0.1758,0.1788,0.181,0.1835,0.1866,0.1894,0.1915,0.1938,0.1976,0.1978,0.2003,0.201,0.2016,0.2018,0.2053,0.2064,0.1955,0.1955,0.1955,0,0,0.16,0.1622,0.164,0.1676,0.1702,0.1727,0.1733,0.1776,0.1805,0.1809,0.1872,0.1895,0.1912,0.1958,0.1983,0.1966,0.2049,0.2021,0.2026,0.2025,0.2059,0.2069,0.2078,0.1958,0.1957,0.1957,0,0,0.1621,0.1654,0.1682,0.1705,0.1749,0.1763,0.1782,0.1819,0.185,0.19,0.1916,0.1962,0.2003,0.2021,0.2033,0.2094,0.2087,0.2108,0.214,0.2174,0.2183,0.2191,0.2207,0.2216,0.2109,0.2109,0.2109,0,0.1635,0.1666,0.1694,0.1723,0.1747,0.1781,0.1809,0.1841,0.1893,0.1921,0.1931,0.2011,0.203,0.2078,0.2104,0.2109,0.2123,0.2103,0.2182,0.219,0.2197,0.2212,0.2222,0.2112,0.2111,0.2111,0.2111,0,0.1662,0.1698,0.1718,0.1763,0.1793,0.1826,0.1863,0.1909,0.1949,0.1976,0.2049,0.2078,0.2123,0.214,0.2142,0.2206,0.2197,0.2188,0.2156,0.2211,0.2224,0.2232,0.2116,0.2115,0.2114,0.2113,0,0,0.1655,0.1723,0.1734,0.1759,0.1817,0.1839,0.1898,0.1949,0.1993,0.2051,0.2104,0.2163,0.2188,0.2204,0.2219,0.2251,0.2316,0.2247,0.2248,0.2256,0.2389,0.2239,0.2234,0.2325,0.2327,0.2328,0.2377,0,0.1669,0.1722,0.1754,0.1807,0.1833,0.1881,0.1929,0.1986,0.2037,0.2099,0.2145,0.2204,0.2208,0.2243,0.2278,0.2311,0.2342,0.2303,0.2341,0.2342,0.2196,0.2239,0.2334,0.2383,0.2385,0.2387,0.2388,0,0.1675,0.1712,0.1764,0.1827,0.1845,0.1887,0.1966,0.2012,0.2099,0.2142,0.2207,0.2245,0.2317,0.2307,0.2388,0.2368,0.2386,0.2401,0.2403,0.2249,0.2207,0.2319,0.2403,0.2402,0.2401,0.24,0.2399,0,0.1642,0.1713,0.1756,0.1778,0.1857,0.19,0.195,0.2034,0.2077,0.2177,0.2218,0.2302,0.2353,0.2398,0.2439,0.2427,0.2511,0.2492,0.2371,0.236,0.246,0.2451,0.2543,0.2543,0.2543,0.2543,0.2542,0,0.1619,0.1658,0.1751,0.1772,0.1829,0.1895,0.1961,0.2023,0.2111,0.2157,0.2243,0.2281,0.2383,0.2437,0.2461,0.2438,0.2532,0.2378,0.2364,0.2479,0.2472,0.2465,0.2456,0.2544,0.2544,0.2544,0.2543,0,0.1568,0.163,0.1682,0.1779,0.1813,0.1857,0.1958,0.1997,0.2094,0.2156,0.2192,0.2295,0.2356,0.2428,0.2503,0.2446,0.2452,0.242,0.2541,0.2533,0.2273,0.2266,0.228,0.2275,0.2271,0.2267,0.2264,0,0.154,0.1566,0.1675,0.1707,0.1755,0.1831,0.1875,0.198,0.2015,0.2139,0.2153,0.2253,0.2307,0.2278,0.2376,0.24,0.2378,0.236,0.2308,0.2262,0.2247,0.2246,0.2245,0.2258,0.2257,0.2256,0.2255,0,0.1485,0.1541,0.1586,0.1654,0.1709,0.1752,0.1826,0.1835,0.1944,0.205,0.205,0.2074,0.2132,0.2178,0.2213,0.223,0.2359,0.2317,0.2325,0.2275,0.2235,0.2225,0.2228,0.224,0.2242,0.2244,0.2244,0,0.145,0.1466,0.1536,0.1576,0.1643,0.165,0.1697,0.1725,0.1766,0.1892,0.1894,0.1994,0.2102,0.2091,0.2129,0.2129,0.2098,0.2027,0.2049,0.2066,0.1976,0.1893,0.178,0,0,0,0,0,0.1404,0.1409,0.1448,0.1482,0.1542,0.1576,0.1652,0.1698,0.1801,0.1748,0.1809,0.1848,0.1874,0.1935,0.1895,0.2065,0.2129,0.2011,0.2063,0.2161,0.2177,0.2092,0,0,0,0,0,0,0.1373,0.1414,0.1416,0.1392,0.1396,0.1441,0.1483,0.1551,0.1523,0.1634,0.1655,0.1743,0.1803,0.1879,0.1861,0.1883,0.1879,0.2085,0.208,0.2151,0.2166,0.218,0.2098,0,0,0,0,0]},{"header":{"parameterUnit":"m.s-1","parameterCategory":2,"la1":30.2991,"la2":30.254,"lo1":-89.0895,"lo2":-89.0444,"dy":0.0017,"dx":0.0017,"nx":28,"ny":28,"refTime":"2024-04-28T03:00:00:Z","depth":"4","parameterNumber":3,"parameterNumberName":"V-component_of_CURRENTS"},"data":[0,0,0,0,0,0,0,0,0,0,0,0,0,0,0,0,0,0,0,0,0,0,0,0,0,0,0,0,0,0,0,0,0,0,0,0,0,0,0,0,0,0,0,0,0,0,0,0,0,0,0,0,0,0,0,0,0,0,0.001,0.001,0,-0.0031,-0.0031,-0.0032,-0.0058,-0.0059,-0.0059,-0.0059,-0.0102,-0.0103,-0.0104,0,0,0,0,0,0,0,0,0,0,0,0,0,0.0027,0.0027,0.001,0.001,0.0009,-0.0031,-0.0031,-0.0032,-0.0058,-0.0059,-0.0059,-0.0059,-0.0102,-0.0103,-0.0104,0,0,0,0,0,0,0,0,0,0,0,0,0,0.0006,0.0027,0.001,-0.0009,-0.0011,-0.0031,-0.0031,-0.0032,-0.0058,-0.0059,-0.0059,-0.0059,-0.0101,-0.0103,-0.0104,-0.0109,0,0,-0.0109,-0.011,0,0,0,0,0,0,0,0,0.0008,0.0006,-0.0005,-0.0007,-0.001,-0.004,-0.0041,-0.0058,-0.0058,-0.004,-0.0059,-0.0059,-0.0081,-0.0084,-0.0092,-0.0111,-0.0113,-0.0109,-0.011,-0.0111,-0.0111,0,0,0,0,0,0,0,0.0009,0.0007,-0.0006,-0.0006,-0.0008,-0.0028,-0.0031,-0.0045,-0.0059,-0.0042,-0.0044,-0.0048,-0.0082,-0.009,-0.0093,-0.0114,-0.0109,-0.011,-0.0111,-0.0112,-0.0145,-0.0145,0,0,0,0,0,0,0.0017,0.0009,-0.0005,-0.0007,-0.0001,-0.0028,-0.0032,-0.003,-0.0059,-0.0064,-0.0048,-0.0049,-0.0088,-0.0091,-0.0095,-0.0098,-0.0111,-0.0112,-0.0113,-0.0145,-0.0145,-0.0145,0,0,0,0,0,0,0.0017,0.0016,-0.0003,-0.0001,-0.0004,-0.0028,-0.0026,-0.0031,-0.0039,-0.0064,-0.0068,-0.0052,-0.0088,-0.0092,-0.0105,-0.01,-0.0113,-0.0114,-0.0145,-0.0145,-0.0145,-0.0108,0,0,0,0,0,0,0.0018,0.0017,0.0021,0.0,-0.0004,-0.0012,-0.0026,-0.0031,-0.0041,-0.0043,-0.0068,-0.0073,-0.0088,-0.0103,-0.0107,-0.0102,-0.0115,-0.0145,-0.0145,-0.0145,-0.0109,-0.0106,-0.0104,0,0,0,0,0,0.0019,0.0028,0.0022,0.002,0.0003,-0.0012,-0.0016,-0.0035,-0.0041,-0.0043,-0.006,-0.0072,-0.0105,-0.0104,-0.0108,-0.0105,-0.0145,-0.0145,-0.0145,-0.011,-0.0107,-0.0104,0,0,0,0,0,0,0.0039,0.0025,0.0019,0.0023,0.0007,-0.0017,-0.0019,-0.0032,-0.0047,-0.0047,-0.0071,-0.0076,-0.0086,-0.0101,-0.0099,-0.0115,-0.0127,-0.0128,-0.0099,-0.0097,-0.0094,-0.0081,-0.0117,0,0,0,0,0,0.0045,0.0048,0.0029,0.0033,0.0027,0.0004,-0.0004,-0.0016,-0.0032,-0.0039,-0.0057,-0.0075,-0.0089,-0.0097,-0.0113,-0.012,-0.0134,-0.0121,-0.0119,-0.0117,-0.011,-0.0127,-0.0125,-0.0144,-0.0144,-0.0144,0,0,0.0054,0.0047,0.0048,0.0037,0.0024,0.0019,-0.0001,-0.0009,-0.0013,-0.0041,-0.0048,-0.0067,-0.009,-0.0098,-0.0104,-0.011,-0.012,-0.0117,-0.0114,-0.0109,-0.0127,-0.0125,-0.0123,-0.0144,-0.0144,-0.0144,0,0,0.0068,0.0067,0.007,0.0059,0.0043,0.0032,0.0031,0.0009,0.0001,-0.001,-0.003,-0.0044,-0.0067,-0.0081,-0.0092,-0.0086,-0.0107,-0.0093,-0.0069,-0.0086,-0.0084,-0.0083,-0.0101,-0.0101,-0.0091,-0.0091,-0.0091,0,0.0078,0.0079,0.0068,0.0065,0.0061,0.0041,0.0042,0.0031,0.0008,0.0007,-0.0006,-0.0037,-0.0058,-0.0066,-0.0066,-0.0079,-0.0093,-0.0077,-0.0082,-0.0081,-0.008,-0.0099,-0.01,-0.0089,-0.0089,-0.0089,-0.009,0,0.0088,0.0089,0.0091,0.0085,0.0081,0.0079,0.0064,0.0061,0.005,0.0039,0.0029,-0.0001,-0.0016,-0.0029,-0.0046,-0.0051,-0.0063,-0.0076,-0.0086,-0.0076,-0.0096,-0.0098,-0.0086,-0.0087,-0.0088,-0.0088,0,0,0.0111,0.01,0.0101,0.0104,0.0092,0.0093,0.0094,0.009,0.0099,0.0074,0.008,0.0048,0.0035,0.0022,-0.0003,-0.0021,-0.0033,-0.0043,-0.0045,-0.0055,-0.007,-0.0074,-0.0077,-0.0046,-0.0046,-0.0046,-0.0086,0,0.0122,0.0124,0.0118,0.0129,0.0129,0.012,0.0127,0.0125,0.0119,0.0122,0.0093,0.009,0.0053,0.005,0.0026,-0.0013,-0.0035,-0.0021,-0.0083,-0.0085,-0.0085,-0.0078,-0.0046,-0.0088,-0.0088,-0.0089,-0.0089,0,0.0131,0.0133,0.0141,0.0153,0.0155,0.0164,0.0182,0.0186,0.0185,0.0181,0.017,0.0149,0.0125,0.0092,0.0028,0.004,-0.001,-0.0048,-0.0051,-0.0067,-0.0092,-0.0101,-0.0092,-0.0092,-0.0092,-0.0092,-0.0091,0,0.0148,0.0152,0.0164,0.0165,0.0173,0.0187,0.0199,0.0206,0.0224,0.0225,0.0239,0.02,0.0192,0.0125,0.0048,0.0039,-0.0024,-0.0047,-0.0102,-0.0103,-0.0104,-0.0105,-0.0096,-0.0096,-0.0096,-0.0096,-0.0096,0,0.0156,0.0166,0.0176,0.0181,0.0214,0.0214,0.0252,0.0259,0.0278,0.0309,0.0277,0.0287,0.0201,0.0154,0.007,-0.0015,-0.0009,-0.0093,-0.0111,-0.0088,-0.0087,-0.0105,-0.0106,-0.0098,-0.0097,-0.0097,-0.0097,0,0.0162,0.0164,0.0183,0.0204,0.0219,0.0245,0.0291,0.0316,0.0334,0.0373,0.0379,0.0357,0.03,0.0206,0.0102,0.0025,-0.0064,-0.01,-0.0061,-0.0077,-0.014,-0.0139,-0.0163,-0.0164,-0.0164,-0.0164,-0.0165,0,0.016,0.0169,0.0206,0.0228,0.0239,0.0279,0.031,0.0341,0.0373,0.0414,0.0435,0.0404,0.0371,0.0231,0.0122,-0.0032,-0.0063,-0.0116,-0.0138,-0.0131,-0.0146,-0.0144,-0.0142,-0.0165,-0.0165,-0.0165,-0.0166,0,0.0159,0.0176,0.0195,0.0241,0.0279,0.0323,0.037,0.0399,0.0442,0.0464,0.0483,0.042,0.0359,0.024,0.0126,0.001,-0.0084,-0.0121,-0.0122,-0.0143,-0.0134,-0.0148,-0.0145,-0.0167,-0.0167,-0.0166,-0.0166,0,0.0165,0.0178,0.021,0.025,0.03,0.0347,0.0376,0.0417,0.0454,0.05,0.0505,0.0446,0.0416,0.0262,0.0156,0.0047,0.0005,-0.0052,-0.0057,-0.0057,-0.002,0.0008,0.0009,0,0,0,0,0,0.0165,0.0176,0.0215,0.0257,0.0306,0.0331,0.0406,0.0433,0.048,0.0498,0.0504,0.0449,0.0315,0.0264,0.0154,0.0125,-0.0029,-0.0011,-0.0101,-0.0174,-0.0172,-0.0148,0,0,0,0,0,0,0.016,0.019,0.0206,0.0253,0.0276,0.0332,0.0375,0.0413,0.0427,0.0464,0.0402,0.0391,0.0264,0.0369,0.0139,0.011,0.0031,-0.0065,-0.0068,-0.0175,-0.0173,-0.0172,-0.0146,0,0,0,0,0]}]]